Location: ????????
(55.0559°N, 39.1270°E)
Time: 19:10:15
(UTC+00:00)

Cosmos 2056 Rocket - Pass Details

Date: 15 November 2025
Orbit: 739 x 795 km, 74.0° (Epoch: 14 December)

Event Time Altitude Azimuth Distance (km) Brightness Sun altitude
Rises 03:43:42 0° 233° (SW) 3,292 6.4 -10.2°
Reaches altitude 10° 03:46:15 10° 242° (WSW) 2,365 5.6 -9.8°
Maximum altitude 03:51:17 38° 310° (NW) 1,191 4.1 -9.1°
Drops below altitude 10° 03:56:18 10° 19° (NNE) 2,359 6.0 -8.5°
Sets 03:58:51 0° 27° (NNE) 3,283 6.9 -8.1°
